STARLINK-30385, 57778

Orbit data source: Space-Track

STARLINK-30385, 57778 is a payload satellite owned by SpaceX/Seattle (US) in LEO that was launched on Mon, 04 Sep 2023 UTC via an FALCON 9 launch vehicle from the Air Force Eastern Test Range (AFETR). Payload-class satellites include a variety of spacecraft equipped with specific instruments for various scientific and technological missions. These include communications satellites like Starlink; space stations such as the ISS; scientific satellites like the Hubble; Earth observation satellites from companies like Planet Labs, Umbra, and HawkEye 360; GPS; miniature CubeSats for education and research; and military/defense satellites.

Loading next visibility...
Identifier
57778, 2023-134H
Orbit
LEO
Country
Flag of USUS
Related business
Manufacturer
SpaceX/Seattle
Mission
Operational Commercial Communications
Bus & Motor
STARLINK V2M, Unknown motor
Mass
730 kg wet, ~700 kg dry
Launch date (UTC)
2023-09-04 (2 years ago)
Launch vehicle
FALCON 9
Launch site
Air Force Eastern Test Range (AFETR)
Object type
Payload
Rocket body
Debris
Shape & HBR
Box + 2 Pan, 17.7 m
Radar Cross Section
33.884 m², Large (>1 m²)

Expand to show TLE details & history
Last TLE update: 13 hours ago

TLE from 13 hours ago
0 STARLINK-30385
1 57778U 23134H   25346.91500880 -.00000115  00000-0  65874-5 0  9991
2 57778  43.0103 296.5458 0002352 267.8978  92.1595 15.02527921126403
Epoch: 2025-12-12T21:57Z
TLE epoch observation values (Epoch: 2025-12-12T21:57:36.760Z)
Latitude
-0.00002°
Longitude
-114.70718°
Altitude
558.945 km
Speed
7.584 km/s
True Right ascension
19h 46m 10s
True Declination
0° 00' 00"
Sunlit
Object was in daylight at epoch
Visualization orbit readout
Latitude
Unknown
Longitude
Unknown
Altitude
Unknown
Speed
Unknown
Apparent Right ascension
Unknown
Apparent Declination
Unknown
Sunlit
N/A
Visualization observer readout
Local Sidereal Time
09:18:47
Azimuth
Unknown
Elevation
Unknown
Doppler factor
Unknown
Orbital elements
Apogee altitude
562.659 km
Perigee altitude
559.395 km
Semi-major axis
6,939.164 km
Eccentricity
0.00024
Inclination
43.0103°
RAAN
296.5458°
Arg. of periapsis
267.8978°
True anomaly
92.18643°
Mean anomaly
92.1595°
Eccentric anomaly
92.17297°
Mean motion
3.75476 °/min
Orbital period
95.88 mins
BSTAR
0.0000065874
Loading maneuver chart data...
Computing Atmospheric mass density...
Loading historical data...
Loading historical data...
Loading historical data...
Loading historical data...
Loading historical data...
Loading historical data...
Loading historical data...

Documentation

Showing up to 5 results
|